Tracking 17782 objects as of 26-July-2016
HD Live streaming from Space Station
objects crossing your sky now

COSMOS 2352

Track COSMOS 2352 now!
10-day predictions
COSMOS 2352 is classified as:


NORAD ID: 25363
Int'l Code: 1998-036A
Perigee: 1,319.3 km
Apogee: 1,879.3 km
Inclination: 82.6 °
Period: 118.0 minutes
Semi major axis: 7970 km
RCS: 1.1335 m2 (large)
Launch date: June 15, 1998
Source: Commonwealth of Independent States (former USSR) (CIS)
Launch site: PLESETSK MISSILE AND SPACE COMPLEX (PKMTR)

Satellites have a single simultaneous earth-space and space-earth channel.
Your satellite tracking list
Your tracking list is empty





NASA's NSSDC Master Catalog

Two Line Element Set (TLE):
1 25363U 98036A   16207.51414637  .00000031  00000-0  19110-3 0  9991
2 25363  82.5949 334.5244 0351313 287.9306 183.8836 12.20083935806615
Source of the keplerian elements: AFSPC

N2YO: 658